Regional Weather Roundup
Issued by NWS Kansas City/Pleasant Hill, MO

Home | Current Version | Previous Version | Text Only | Print | Product List | Glossary On
Versions: 1 2 3 4 5 6 7 8 9 10 11 12 13 14 15 16 17 18 19 20 21 22 23 24 25 26 27 28 29 30 31 32 33 34 35 36 37 38 39 40 41 42 43 44 45 46 47 48 49 50
000
ASUS43 KEAX 181004
RWREAX

WEATHER ROUNDUP FOR EASTERN KANSAS AND NORTHWEST MISSOURI
NATIONAL WEATHER SERVICE KANSAS CITY/PLEASANT HILL MO
500 AM CDT SAT APR 18 2015

KSZ040-057-103>105-MOZ028-029-037-043-181100-
...KANSAS CITY METROPOLITAN AREA...

CITY           SKY/WX    TMP DP  RH WIND       PRES   REMARKS
K.C. INTL      CLOUDY    63  56  78 E8        29.92F
K.C. DOWNTOWN  MOCLDY    62  56  80 NE3       29.91F
LEES SUMMIT    MOCLDY    60  57  89 E6        29.93F
OLATHE - IXD   CLOUDY    62  58  86 E5        29.92F
OLATHE - OJC   CLOUDY    63  58  83 E7        29.91F
LAWRENCE       FOG       56  55  97 CALM      29.91F VSB 1

$$

MOZ001>008-011>017-020>025-030>033-038>040-044>046-053-054-181100-
...NORTHERN AND CENTRAL MISSOURI...

CITY           SKY/WX    TMP DP  RH WIND       PRES   REMARKS
ST. JOSEPH     CLOUDY    61  56  83 CALM      29.92F
MOSBY          PTSUNNY   61  55  82 CALM      29.93S
WARRENSBURG    MOCLDY    61  55  82 S3        29.93F
WHITEMAN AFB   MOCLDY    59  55  86 S6        29.93F
CLINTON        CLOUDY    63  57  82 CALM      29.94F
SEDALIA        PTCLDY    60  55  83 S8        29.95F
WARSAW         NOT AVBL
MARSHALL       PTCLDY    64  57  77 SE7       29.95F
CHILLICOTHE      N/A     61  59  93 CALM      29.95F
MOBERLY        CLOUDY    61  54  77 E5        29.97F
KIRKSVILLE     CLOUDY    61  55  81 E5        29.98F

$$

MOZ041-047>049-056>058-063>065-088>090-097-181100-
...EASTERN AND SOUTHERN MISSOURI...

CITY           SKY/WX    TMP DP  RH WIND       PRES   REMARKS
ST. LOUIS INTL PTCLDY    61  55  81 CALM      30.00F
SPIRIT OF STL  PTCLDY    55  53  93 CALM      29.99S FOG
COLUMBIA       PTCLDY    62  57  83 SE8       29.97F
JEFFERSON CITY PTCLDY    64  56  75 E7        29.97F
MEXICO         MOCLDY    64  61  88 SE7       29.97F
HANNIBAL       CLOUDY    64  52  63 E5        29.98F
ROLLA          CLOUDY    60  58  92 SE8       29.98S
LEBANON        CLOUDY    63  59  88 SE5       29.98F
OSAGE BEACH    CLOUDY    63  55  77 SE3       29.96F
SPRINGFIELD    CLOUDY    62  58  86 SE9       29.96F
BRANSON        CLOUDY    59  57  94 CALM      29.98F
NEVADA         CLOUDY    61  59  94 SE6       29.93F
JOPLIN         CLOUDY    63  59  87 SE7       29.93F
WEST PLAINS    CLOUDY    63  61  93 S6        30.00F FOG

$$

IAZ060-094-KSZ022-034>040-054-083-096-NEZ052-066-093-181100-
...KANSAS...SOUTHEAST NEBRASKA AND IOWA...

CITY           SKY/WX    TMP DP  RH WIND       PRES   REMARKS
TOPEKA         CLOUDY    58  56  93 CALM      29.91F
MANHATTAN      LGT RAIN  61  58  90 CALM      29.90F
EMPORIA        LGT RAIN  61  59  93 S6        29.91F
CHANUTE        CLOUDY    63  61  93 SE7       29.91F
WICHITA        CLOUDY    62  58  86 N5        29.90F
OMAHA          CLOUDY    62  54  74 NE5       29.93F
LINCOLN        CLOUDY    61  55  81 SE7       29.92F
FALLS CITY     CLOUDY    59  55  87 CALM      29.92F
LAMONI         CLOUDY    62  54  74 SE5       29.95F
DES MOINES     LGT RAIN  62  57  83 VRB3      29.99S

$$




USA.gov is the U.S. government's official web portal to all federal, state and local government web resources and services.